Location: St Paul
(33.9360°N, 83.4200°W)
Time: 05:47:51
(UTC-04:00)

Cosmos 2082 Rocket - Pass Details

Date: 06 October 2017
Orbit: 831 x 856 km, 71.0° (Epoch: 22 October)

Event Time Altitude Azimuth Distance (km) Brightness Sun altitude
Rises 20:07:07 0° 216° (SW) 3,378 5.8 -12.5°
Reaches altitude 10° 20:09:39 10° 222° (SW) 2,451 5.2 -13.0°
Maximum altitude 20:15:01 45° 295° (WNW) 1,133 3.4 -14.1°
Drops below altitude 10° 20:20:28 10° 8° (N) 2,479 4.6 -15.3°
Sets 20:23:03 0° 14° (NNE) 3,421 5.3 -15.8°
